| time (UTC) | temp C | wind direction | speed KPH | gust KPH | rain 1hr cm | rain 24hr cm | rain mn cm | humidity % | barometer mb |
| 20260506000032 | 26 | 9 | 6.4 | 14.5 | 0.00 | 0.00 | 0.00 | 41 | 1013.6 |
| 20260505234535 | 26 | 18 | 8.0 | 17.7 | 0.00 | 0.00 | 0.00 | 40 | 1013.8 |
| 20260505233036 | 26 | 13 | 8.0 | 16.1 | 0.00 | 0.00 | 0.00 | 41 | 1013.9 |
| 20260505230032 | 26 | 25 | 8.0 | 16.1 | 0.00 | 0.00 | 0.00 | 41 | 1014.0 |
| 20260505223030 | 25 | 9 | 6.4 | 14.5 | 0.00 | 0.00 | 0.00 | 42 | 1014.4 |
| 20260505220036 | 25 | 11 | 8.0 | 16.1 | 0.00 | 0.00 | 0.00 | 43 | 1014.5 |
| 20260505214532 | 25 | 350 | 6.4 | 14.5 | 0.00 | 0.00 | 0.00 | 43 | 1014.6 |
| 20260505213032 | 25 | 13 | 6.4 | 14.5 | 0.00 | 0.00 | 0.00 | 43 | 1014.7 |
| 20260505211535 | 25 | 39 | 6.4 | 14.5 | 0.00 | 0.00 | 0.00 | 44 | 1014.8 |
| 20260505210036 | 25 | 45 | 6.4 | 16.1 | 0.00 | 0.00 | 0.00 | 45 | 1015.0 |
| 20260505204532 | 25 | 24 | 6.4 | 14.5 | 0.00 | 0.00 | 0.00 | 44 | 1015.1 |
| 20260505203039 | 25 | 21 | 4.8 | 16.1 | 0.00 | 0.00 | 0.00 | 45 | 1015.2 |
| 20260505201534 | 25 | 11 | 6.4 | 17.7 | 0.00 | 0.00 | 0.00 | 45 | 1015.2 |
| 20260505200038 | 25 | 5 | 8.0 | 16.1 | 0.00 | 0.00 | 0.00 | 46 | 1015.3 |
| 20260505194609 | 25 | 34 | 4.8 | 16.1 | 0.00 | 0.00 | 0.00 | 46 | 1015.3 |
| 20260505193029 | 25 | 11 | 4.8 | 16.1 | 0.00 | 0.00 | 0.00 | 47 | 1015.4 |
| 20260505190029 | 23 | 48 | 4.8 | 12.9 | 0.00 | 0.00 | 0.00 | 50 | 1015.6 |
| 20260505184529 | 23 | 17 | 6.4 | 14.5 | 0.00 | 0.00 | 0.00 | 50 | 1015.7 |
| 20260505183035 | 22 | 28 | 4.8 | 12.9 | 0.00 | 0.00 | 0.00 | 54 | 1015.8 |
| 20260505181531 | 21 | 33 | 6.4 | 14.5 | 0.00 | 0.00 | 0.00 | 57 | 1015.7 |
| 20260505180040 | 20 | 33 | 6.4 | 16.1 | 0.00 | 0.00 | 0.00 | 58 | 1015.7 |
| 20260505180032 | 20 | 58 | 6.4 | 16.1 | 0.00 | 0.00 | 0.00 | 58 | 1015.7 |
| 20260505173035 | 20 | 22 | 4.8 | 12.9 | 0.00 | 0.00 | 0.00 | 59 | 1015.6 |
| 20260505171532 | 20 | 27 | 6.4 | 14.5 | 0.00 | 0.00 | 0.00 | 58 | 1015.5 |
| 20260505164609 | 20 | 49 | 4.8 | 11.3 | 0.00 | 0.00 | 0.00 | 59 | 1015.6 |
| 20260505163035 | 19 | 32 | 4.8 | 12.9 | 0.00 | 0.00 | 0.00 | 61 | 1015.6 |
| 20260505161654 | 18 | 17 | 4.8 | 11.3 | 0.00 | 0.00 | 0.00 | 64 | 1015.6 |
| 20260505153034 | 17 | 5 | 4.8 | 9.7 | 0.00 | 0.00 | 0.00 | 68 | 1015.3 |
| 20260505151606 | 17 | 358 | 3.2 | 8.0 | 0.00 | 0.00 | 0.00 | 69 | 1015.3 |
| 20260505140107 | 11 | 229 | 1.6 | 3.2 | 0.00 | 0.00 | 0.00 | 85 | 1014.8 |
| 20260505130143 | 8 | 246 | 0.0 | 6.4 | 0.00 | 0.00 | 0.00 | 85 | 1014.1 |
| 20260505123109 | 9 | 191 | 3.2 | 8.0 | 0.00 | 0.00 | 0.00 | 83 | 1013.9 |
| 20260505121534 | 9 | 247 | 1.6 | 8.0 | 0.00 | 0.00 | 0.00 | 82 | 1013.7 |
| 20260505120035 | 10 | 247 | 0.0 | 3.2 | 0.00 | 0.00 | 0.00 | 82 | 1013.7 |
| 20260505113029 | 10 | 247 | 3.2 | 6.4 | 0.00 | 0.00 | 0.00 | 81 | 1013.6 |
| 20260505111607 | 10 | 239 | 1.6 | 6.4 | 0.00 | 0.00 | 0.00 | 81 | 1013.5 |
| 20260505100037 | 11 | 237 | 0.0 | 4.8 | 0.00 | 0.00 | 0.00 | 77 | 1013.1 |
| 20260505094536 | 12 | 247 | 3.2 | 6.4 | 0.00 | 0.00 | 0.00 | 76 | 1013.0 |
| 20260505090110 | 13 | 314 | 0.0 | 0.0 | 0.00 | 0.00 | 0.00 | 72 | 1012.7 |
| 20260505084535 | 13 | 30 | 1.6 | 4.8 | 0.00 | 0.00 | 0.00 | 71 | 1012.8 |
| 20260505083032 | 13 | 73 | 1.6 | 4.8 | 0.00 | 0.00 | 0.00 | 70 | 1012.8 |
| 20260505081535 | 13 | 53 | 0.0 | 6.4 | 0.00 | 0.00 | 0.00 | 69 | 1012.8 |
| 20260505074649 | 14 | 58 | 1.6 | 6.4 | 0.00 | 0.00 | 0.00 | 67 | 1012.7 |
| 20260505073030 | 15 | 354 | 3.2 | 6.4 | 0.00 | 0.00 | 0.00 | 66 | 1012.6 |
| 20260505071532 | 15 | 340 | 4.8 | 8.0 | 0.00 | 0.00 | 0.00 | 64 | 1012.5 |
| 20260505064647 | 16 | 295 | 1.6 | 9.7 | 0.00 | 0.00 | 0.00 | 58 | 1012.3 |
| 20260505061643 | 17 | 286 | 3.2 | 12.9 | 0.00 | 0.00 | 0.00 | 57 | 1012.3 |
| 20260505060035 | 17 | 298 | 8.0 | 17.7 | 0.00 | 0.00 | 0.00 | 56 | 1012.2 |
| 20260505054531 | 17 | 298 | 4.8 | 22.5 | 0.00 | 0.00 | 0.00 | 54 | 1012.2 |
| 20260505051543 | 17 | 122 | 0.0 | 8.0 | 0.00 | 0.00 | 0.00 | 52 | 1012.0 |
| 20260505041536 | 19 | 294 | 8.0 | 24.1 | 0.00 | 0.00 | 0.00 | 45 | 1011.4 |
| 20260505040050 | 19 | 268 | 12.9 | 27.4 | 0.00 | 0.00 | 0.00 | 45 | 1011.1 |
| 20260505033033 | 20 | 284 | 12.9 | 27.4 | 0.00 | 0.00 | 0.00 | 42 | 1010.6 |
| 20260505031530 | 20 | 275 | 11.3 | 22.5 | 0.00 | 0.00 | 0.00 | 41 | 1010.4 |
| 20260505030032 | 21 | 279 | 12.9 | 30.6 | 0.00 | 0.00 | 0.00 | 39 | 1010.2 |
| 20260505024534 | 22 | 285 | 14.5 | 30.6 | 0.00 | 0.00 | 0.00 | 38 | 1010.1 |
| 20260505023032 | 22 | 278 | 16.1 | 32.2 | 0.00 | 0.00 | 0.00 | 36 | 1010.1 |
| 20260505021531 | 23 | 274 | 14.5 | 32.2 | 0.00 | 0.00 | 0.00 | 34 | 1010.0 |
| 20260505020039 | 23 | 272 | 14.5 | 29.0 | 0.00 | 0.00 | 0.00 | 33 | 1009.9 |
| 20260505014535 | 24 | 285 | 14.5 | 32.2 | 0.00 | 0.00 | 0.00 | 32 | 1009.9 |
| 20260505011535 | 25 | 279 | 19.3 | 35.4 | 0.00 | 0.00 | 0.00 | 31 | 1009.8 |
| 20260505010141 | 26 | 288 | 17.7 | 35.4 | 0.00 | 0.00 | 0.00 | 31 | 1009.8 |
| 20260505004534 | 26 | 293 | 14.5 | 30.6 | 0.00 | 0.00 | 0.00 | 30 | 1010.0 |
| 20260505003036 | 27 | 287 | 12.9 | 27.4 | 0.00 | 0.00 | 0.00 | 29 | 1010.0 |